{"data":{"norad_id":59213,"intl_designator":"2024-046N","name":"STARLINK-31517","alt_names":[],"object_type":"PAYLOAD","status":"ACTIVE","operator":null,"country":"US","launch_date":"2024-03-11","launch_site_code":"AFWTR","launch_vehicle":null,"mission":null,"orbit_class":"UNKNOWN","rcs_meters":null,"size_class":null,"mass_kg":null,"dimensions":null,"purposes":["comms"],"wikipedia_slug":null,"has_3d_model":false,"image_url":null,"decayed_at":null,"tle_current":{"epoch":"2026-05-25T01:15:28.503936Z","epoch_age_seconds":81050,"freshness":"FRESH","line1":"1 59213U 24046N   26145.05241324  .00001216  00000+0  47127-4 0  9999","line2":"2 59213  53.1608 159.7778 0001146  85.5005 274.6129 15.34395649124742","mean_motion":15.34395649,"eccentricity":0.0001146,"inclination_deg":53.1608,"raan_deg":159.7778,"arg_perigee_deg":85.5005,"mean_anomaly_deg":274.6129,"bstar":4.7127e-5,"rev_number":12474,"period_min":93.848024200178,"perigee_km":461.93221055305,"apogee_km":463.50013410014,"semimajor_km":6840.8531723266,"source":"CELESTRAK","updated_at":"2026-05-25T13:38:18.866506Z"}}}